Погода в Белогорке

Погода в Белогорке : погода сейчас, прогноз погоды и архив. Всё, что Вы хотите узнать о погоде в Белогорке!

Хотите узнать прогноз погоды в Белогорке? Тогда Вам сюда: Погода в Белогорке

Поиск расширенной информации на нашем сайте:

Другие новости

Новости СМИ2

Главная страница сайта

Новости сайта

03.07.2017

Напоминаем, что на нашем специализированном сайте Метеоцентр.Азия вы можете получить высокодетализированные автоматические прогнозы погоды по пунктам России, СНГ и мира в авиационном формате (включающие направление и скорость ветра, видимость, явления погоды, количество и форму облачности, нижнюю и верхнюю границу облачности).


Погода в Белогорке - сегодня

Время (UTC), дата Ветер
(°,м/с) 
Видим.   Явления Облачность Т
(°С)
Тd
(°С)
f(%) Тe
(°С)
Pmin
(гПа)
dP
(гПа)
Po
(мм)
O2
(г/м3)
Тmin Tmax R s Состояние
почвы
00 12.12.17 тихо ()   20000 м    10/10 210 м 
[St]
-3.3 -4.1 94 -3  1006.7  0.6  747  305           
03 12.12.17 170 (Ю) 20000 м    10/10 210 м 
[St]
-4.2 -4.8 96 -6  1005.8  -1  746  306  -4.2         
06 12.12.17 140 (ЮВ) 20000 м    10/10 210 м 
[St]
-3 -3.5 96 -4  1004.9  -0.9  745  304  -4.2      12  равномерный
сухой снег
100% 
09 12.12.17 140 (ЮВ) 4000 м  дымка  10/10 240 м 
[St]
-2.2 -2.7 96 -5  1002.1  -2.7  743  302           
12 12.12.17 130 (ЮВ) 4000 м  слаб. снег  10/10 270 м 
[Ns]
-0.9 -1.4 96 -3  998.4  -3.6  740  299           
15 12.12.17 тихо ()   4000 м  слаб. дождь{снег} [диам. гололёда 1 мм]  10/10 270 м 
[Ns]
+0.2 -0.3 96 994.4  -3.9  737  297         
21 12.12.17 180 (Ю) 5{10}  4000 м  слаб. дождь{снег}  10/10 270 м 
[Ns]
+1.7 +1.3 97 -1  992.7  0.1  736  295           
00 13.12.17 180 (Ю) 6-10{10}  4000 м  слаб. дождь  10/10 270 м 
[Ns]
+3.2 +2.5 95 991.8  -0.8  736  293           
03 13.12.17 190 (Ю) 5{10}  20000 м  {дождь}  10/10 300 м 
[St]
+3.1 +2 92 +1  990.7  -1.1  735  292  +0.2       
06 13.12.17 240 (ЮЗ) 7-12{14}  4000 м  слаб. дождь  10/10 270 м 
[Ns]
+1.1 -0 92 -3  994  3.3  737  296  +0.2    равномерный
мокрый или
старый снег
100% 
09 13.12.17 230 (ЮЗ) 6{12}  10 км  {дождь}  8/8 420 м кучево-дожд. 
[Cb cap]
+0.6 -1.4 86 -3  999.1  4.9  741  298           
12 13.12.17 230 (ЮЗ) 5{12}  10 км  {дождь}  3/3 600 м 
[Sc]
+0.2 -2.7 81 -3  1002.1  743  300           
15 13.12.17 200 (Ю) 20000 м    ясно 
-1.5 -3.4 87 -4  1004.4  2.2  745  302         
18 13.12.17 180 (Ю) 4{12}  20000 м    3/0 верхняя 
[Ci fib]
-0.9 -3.2 84 -3  1005  0.6  745  302    +1.1  0.0     
21 13.12.17 200 (Ю) 20000 м  {снег}  9/3 600 м средняя 
[Sc|As trans]
+0.3 -1.6 87 -3  1005.5  0.5  746  300           
00 14.12.17 190 (Ю) 20000 м  {снег}  8/0 средняя 
[Ac As]
-0.2 -1.5 91 -3  1006.1  0.6  746  301           
03 14.12.17 180 (Ю) 20000 м    9/0 средняя 
[Ac As]
-0.6 -2.1 90 -2  1006.1  746  302  -1.5    0.3     
06 14.12.17 190 (Ю) 20000 м    9/9 630 м 
[Sc]
-0.5 -3.3 81 -2  1006.4  0.3  746  302  -1    0.3  равномерный
мокрый или
старый снег
100% 
09 14.12.17 160 (Ю) 10 км    9/1 600 м верхняя 
[Sc|Cs]
-0.7 -3.4 82 -3  1006.1  -0.3  746  302           
12 14.12.17 140 (ЮВ) 20000 м    8/1 600 м верхняя 
[Sc|Cs]
-1.3 -3.4 86 -2  1004.8  -1.2  745  302           
15 14.12.17 140 (ЮВ) 20000 м    10/10 360 м 
[St]
-1.6 -3.7 86 -4  1003.7  -1.1  744  302           
18 14.12.17 130 (ЮВ) 3{10}  20000 м    10/10 360 м 
[St]
-1.1 -4.5 78 -3  1002.5  -1.3  743  301    -0.4       
21 14.12.17 120 (ЮВ) 20000 м    10/10 330 м 
[St]
-1.9 -3.9 86 -4  999.8  -1.3  741  301           
00 15.12.17 140 (ЮВ) 4000 м  слаб. снег  10/10 270 м 
[Ns]
-1.5 -3.1 89 -2  998.3  -1.4  740  300           
03 15.12.17 140 (ЮВ) 4000 м  слаб. снег  10/10 270 м 
[Ns]
-1 -2.1 92 -3  996.8  -1.5  739  299  -2.1    0.3     
Время (UTC), дата Ветер
(°,м/с) 
Видим.   Явления Облачность Т
(°С)
Тd
(°С)
f(%) Тe
(°С)
Pmin
(гПа)
dP
(гПа)
Po
(мм)
O2
(г/м3)
Тmin Tmax R s Состояние
почвы

Для получения пояснительной информации подведите курсор к названию столбца.

ПОГОДА в Белогорке - архив

Всё, что Вы хотите узнать о погоде в Белогорке - удобно и подробно!

Выберите нужную дату (начиная с 1 января 2015* года) и нажмите кнопку "Найти".
Будут отображены архивные сводки погоды по пункту Белогорка, начиная с указанной даты.


Отображать данные в формате CSV (для использования в таблицах Excel)


Внимание! Наш архив погоды предназначен исключительно для личного некоммерческого использования в познавательных целях. Если Вам необходимы официальные справки о состоянии погоды (для производственных, юридических, коммерческих и т.п. целей), обращайтесь в органы Росгидромета.

*Примечание: данная дата относится к архиву по метеостанциям СССР (Россия, СНГ, Балтия).
Архив по метеостанциям Зарубежной Европы и Азии (кроме Китая) хранится 10 дней, по другим регионам земного шара (Китай, Африка, Америка, Австралия, Океания) - 1 день.

Белогорка - район местоположения метеостанции


Название, широта, долгота, высота метеостанции:
Белогорка 59.3°ш. 30.1°д. 90 м над ур. моря [Российская Федерация]

Дополнительная информация

В oтличие oт бoльшинства пoгoдных сайтoв мы публикуем пoдрoбную метеoинфoрмацию в детальнoм прoфессиoнальнoм фoрмате.

Характеристики температуры и влажнoсти вoздуха измеряются на высoте 2 м в тени вдали oт зданий и деревьев.
Скoрoсть ветра измеряется на высoте 10 м (на урoвне рoста челoвека скoрoсть ветра ниже в 1.5-2 раза). Если метеoстанция нахoдится в гoрoде или в лесу, тo скoрoсть ветра занижена на 2-4 м/с пo сравнению с oткрытым местoм. Скoрoсть ветра над акватoриями крупных рек и oзёр, а также на вершинах хoлмoв на 2-5 м/с выше, чем в oбычных услoвиях.
Атмoсфернoе давление в разных тoчках местнoсти мoжет значительнo oтличаться oт давления на метеoстанции, в зависимoсти oт услoвий рельефа (при пoдъёме на 10 м давление пoнижается примернo на 1 мм рт.ст.).